User: anonymous   Login
Location: Arrakis Observatory
(44.1122°N, 95.7153°W)
Time: 13:34:32
(UTC-05:00)
Language:

Coronas F rocket - Orbit

View from above orbital plane
View from above orbital plane
View from above satellite
View from above satellite

Ground track
Ground track

The orbit data is extracted from the following two-line orbital elements,

1 26874U 01032B   15149.79820651  .00012976  00000-0  13326-3 0  9994
2 26874 082.4654 337.1677 0010885 205.6894 154.3826 15.64662197775250
Epoch (UTC): 29 May 2015 19:09:25
Eccentricity: 0.0010885
inclination: 82.4654°
perigee height: 367 km
apogee height: 381 km
right ascension of ascending node: 337.1677°
argument of perigee: 205.6894°
revolutions per day: 15.64662197
mean anomaly at epoch: 154.3826°
orbit number at epoch: 77525

The dashed part of the orbit path shows where the satellite is in the earth's shadow,  

DLR